Simultaneous Nadir Overpasses (SNOs) Predictions

Prediction of SNOs between LANDSAT-8 and METOP-B Satellite Orbit:

Table of predicted SNOs for the next 14.0 days since TLE Epoch: 11/14/2014
Index Date (LANDSAT-8) Time (LANDSAT-8) Lat,Lon (LANDSAT-8) SZA (LANDSAT-8 ) Date (METOP-B) Time (METOP-B) Lat,Lon (METOP-B) SZA (METOP-B ) Distance(km) Time Diff (sec)
1 11/14/2014 11:51:16 -81.05,-139.08 78.45 11/14/2014 11:50:49 -81.06,-138.92 78.44 2.94 27
2 11/14/2014 12:40:41 81.08, 29.00 101.64 11/14/2014 12:41:28 81.08, 29.11 101.67 1.96 47
3 11/17/2014 07:25:29 -81.05, -72.75 77.77 11/17/2014 07:25:14 -81.05, -72.63 77.76 2.22 15
4 11/17/2014 08:14:54 81.07, 95.30 102.31 11/17/2014 08:15:53 81.08, 95.34 102.34 0.83 59
5 11/20/2014 02:59:42 -81.04, -6.34 77.13 11/20/2014 02:59:40 -81.05, -6.41 77.14 1.25 2
6
